Flag for Germany Weather past 2 weeks in Göppingen, Baden-Württemberg, Germany

Now
71 °F

Passing clouds.


Feels Like: 75 °F
Forecast: 60 / 82 °F
Wind: 6 mph from Southwest

Location: Stoetten

Current Time: Aug 31, 2015 at 9:28:41 AM

Latest Report: Aug 31, 2015 at 9:00 AM


Visibility: 44 mi

Pressure: 29.97 "Hg

Humidity: 63%

Dew point: 57 °F

Location of GöppingenLocation

Historic Weather in Göppingen — Graph

°F

Göppingen temperature yesterday

Maximum temperature yesterday: 87 °F (at 5:00 PM)
Minimum temperature yesterday: 70 °F (at 4:00 AM)
Average temperature yesterday: 77 °F

Past Weeks' High & Low Weather Summary

 TemperatureHumidityPressure
High87 °F (Aug 30, 5:00 PM)100% (Aug 16, 8:00 AM)30.28 "Hg (Aug 16, 8:00 AM)
Low48 °F (Aug 18, 7:00 AM)33% (Aug 27, 3:00 PM)29.67 "Hg (Aug 24, 3:00 PM)
Average62 °F73%30.02 "Hg
* Reported Aug 16 8:00 AM — Aug 31 8:00 AM, Göppingen, Weather by CustomWeather, © 2015

Note: Actual official high and low records may vary slightly from our data, if they occured in-between our weather recording intervals... More about our weather records

Advertising

Göppingen weather history for previous 24 hours

 ConditionsComfort  
Time TempWeatherWind HumidityBarometerVisibility
8:00 AM
Mon, Aug 31
68 °FPassing clouds.3 mph69%29.98 "Hg43 mi
7:00 AM73 °FPassing clouds.3 mph58%29.96 "Hg43 mi
6:00 AM72 °FClear.3 mph58%29.97 "Hg43 mi
5:00 AM73 °FClear.2 mph56%29.96 "Hg40 mi
4:00 AM75 °FClear.3 mph52%29.95 "Hg43 mi
3:00 AM75 °FClear.3 mph52%29.96 "Hg43 mi
2:00 AM76 °FClear.3 mph50%29.98 "Hg43 mi
1:00 AM75 °FClear.3 mph53%29.99 "Hg19 mi
11:00 PM
Sun, Aug 30
75 °FClear.N/A55%30.01 "Hg37 mi
10:00 PM75 °FClear.N/A55%30.02 "Hg43 mi
9:00 PM78 °FPassing clouds.3 mph48%30.00 "Hg43 mi
8:00 PM80 °FPassing clouds.N/A47%29.98 "Hg43 mi
7:00 PM85 °FPassing clouds.3 mph41%29.96 "Hg43 mi
6:00 PM87 °FPassing clouds.3 mph33%29.95 "Hg43 mi
5:00 PM87 °FPassing clouds.3 mph37%29.96 "Hg43 mi
4:00 PM86 °FPassing clouds.3 mph40%29.97 "Hg43 mi
3:00 PM86 °FPassing clouds.2 mph40%29.99 "Hg43 mi
2:00 PM84 °FPassing clouds.2 mph40%30.02 "Hg43 mi
1:00 PM82 °FPassing clouds.3 mph46%30.04 "Hg47 mi
12:00 PM80 °FPassing clouds.3 mph52%30.05 "Hg47 mi
11:00 AM77 °FPassing clouds.5 mph55%30.07 "Hg47 mi
10:00 AM77 °FPassing clouds.3 mph55%30.06 "Hg47 mi
9:00 AM74 °FPassing clouds.1 mph59%30.08 "Hg47 mi
Weather by CustomWeather, © 2015

See weather overviewHow to use our weather pages